Wind_Speed
21 21 21 19 20 22 23 24 26 26 23 23 24 24 25 28 30 34 37 38 39 38 38 37 36 33 31 31 34 37 40 41 40 40 40 40 40 41 41 41 40 39 38 40
22 22 23 24 25 26 26 27 28 27 24 24 24 23 23 25 32 36 39 41 43 44 43 41 37 34 37 39 41 44 46 46 44 44 43 42 42 43 45 46 44 43 43 44
22 24 27 28 29 30 30 29 28 28 26 28 29 26 22 25 31 37 41 45 48 48 44 41 38 36 39 42 43 44 46 47 47 46 45 44 43 44 46 47 46 46 46 46
20 22 25 27 29 30 30 30 32 32 29 32 34 35 33 33 37 42 45 47 48 46 40 37 35 35 37 38 39 41 44 46 47 47 46 45 45 45 46 45 45 45 46 48
14 16 18 20 20 23 26 30 34 36 35 35 38 42 42 42 45 47 49 50 48 44 40 38 37 37 36 36 37 39 40 42 43 44 44 43 42 42 42 42 43 44 46 46
9 11 11 10 11 15 19 24 26 27 31 36 36 41 46 46 47 48 50 51 49 46 43 42 43 42 40 40 40 41 39 39 40 41 41 41 41 41 41 41 42 43 44 45
6 7 9 11 11 12 16 18 19 20 22 29 31 36 44 46 47 48 50 52 53 52 51 51 50 47 45 45 44 40 38 38 39 39 40 41 41 41 41 41 42 44 45 46
7 8 11 14 17 17 18 19 20 22 23 25 27 32 37 40 43 45 47 50 52 52 52 53 55 53 51 50 47 40 37 39 40 41 43 43 42 42 42 43 45 47 48 49
12 12 14 16 14 14 15 18 19 23 25 28 30 34 40 43 46 48 50 51 53 54 54 50 47 48 51 50 44 40 39 42 44 45 46 45 45 45 45 46 48 49 48 47
8 8 10 13 11 9 10 11 14 19 25 29 31 33 37 41 47 52 54 56 58 59 59 59 56 53 52 48 44 41 41 45 48 50 49 48 47 47 47 47 45 44 42 41
5 6 8 14 18 17 16 17 20 24 28 34 39 39 38 41 46 51 55 56 56 56 58 58 56 53 47 41 37 33 34 35 36 37 38 39 40 41 42 41 40 37 36 35
12 13 14 18 21 22 22 23 24 28 32 38 43 42 37 37 39 43 47 50 52 50 47 45 44 43 40 35 32 29 29 29 30 32 33 34 35 37 37 37 37 35 33 33
17 18 19 20 22 24 26 26 28 31 36 41 42 38 33 32 35 38 40 39 41 42 39 35 30 25 22 22 24 27 30 31 32 34 35 35 35 35 36 36 35 34 32 32
20 19 21 22 24 26 26 27 29 32 36 40 38 31 26 31 36 38 36 32 32 33 36 34 30 25 21 20 21 23 26 29 31 32 32 32 32 33 34 34 32 32 32 33
26 25 25 26 27 27 26 27 29 31 34 37 35 30 28 31 36 36 32 27 26 28 32 36 36 32 28 24 24 25 27 28 29 30 29 29 31 32 33 33 31 31 32 33
33 32 30 29 30 29 26 26 28 29 31 32 32 30 30 31 33 32 28 21 18 19 22 24 24 24 23 23 24 26 28 28 28 28 29 29 30 31 32 32 31 30 31 31
37 36 35 32 32 31 28 26 26 26 27 28 29 29 28 28 28 28 26 22 17 13 12 12 13 17 20 21 22 24 26 27 27 27 28 29 30 30 30 30 29 29 30 31
35 37 38 35 34 33 28 26 24 24 24 26 27 26 25 24 24 23 24 21 15 11 7 8 10 11 14 16 18 20 21 23 24 26 27 29 30 31 31 31 30 31 32 32
28 32 35 35 36 34 27 26 23 22 21 23 25 25 23 22 21 20 19 18 14 10 8 9 9 9 11 13 16 18 19 21 23 24 25 27 29 31 31 31 31 30 29 28
25 26 27 28 31 33 28 25 21 22 20 21 21 21 20 19 19 19 16 15 13 10 8 8 8 9 10 13 15 17 19 21 22 24 25 25 26 26 25 23 22 22 22 23
25 25 25 25 27 29 28 28 26 25 23 21 19 19 17 16 17 16 14 13 12 11 10 9 9 9 10 12 14 16 19 21 23 25 25 24 22 20 18 17 17 17 17 19
29 29 27 25 26 27 27 30 30 27 25 23 20 17 15 15 14 13 12 11 10 9 8 7 7 6 6 7 8 10 12 14 16 16 16 16 15 13 12 13 13 14 15 17
27 29 30 28 26 26 27 30 31 30 27 24 21 18 15 14 13 12 9 8 7 7 5 4 4 3 3 4 6 7 8 8 7 7 7 8 8 9 10 10 10 10 13 15
23 28 29 29 27 28 28 29 31 31 28 24 22 21 18 15 14 13 10 8 6 5 4 3 3 3 4 5 6 7 7 7 6 3 3 5 7 8 9 11 12 14 16 17
25 27 27 27 26 28 27 27 28 28 26 24 22 23 22 19 16 16 15 14 12 11 9 8 7 7 7 8 8 8 7 6 5 3 3 5 7 9 11 13 14 15 15 16
28 28 27 25 25 27 25 25 25 25 24 23 23 24 24 22 20 19 19 18 17 15 13 11 11 11 11 11 11 11 10 9 8 6 6 7 9 10 11 11 12 12 14 15
Wind_Direction
240 241 243 243 242 241 238 236 235 233 228 238 245 250 253 260 267 271 272 272 273 274 276 278 278 272 259 255 260 267 268 269 272 276 278 279 281 283 284 284 285 287 288 288
241 240 240 241 242 245 248 248 249 248 239 238 243 249 254 256 259 263 268 273 279 283 284 282 277 266 259 260 262 262 264 265 269 272 272 273 275 278 281 282 284 284 285 286
249 247 247 246 249 253 255 255 255 255 243 235 239 237 241 247 251 257 264 270 276 281 284 281 275 267 261 260 260 258 259 261 264 266 268 270 272 275 278 279 280 281 283 283
250 254 259 261 260 261 259 260 258 257 247 233 240 240 231 234 244 252 260 267 273 276 277 274 271 267 264 264 263 262 262 264 266 267 268 271 273 276 277 278 279 280 281 283
257 262 267 268 269 269 267 264 263 263 257 247 239 246 246 243 248 256 263 268 269 270 272 272 272 272 269 269 270 270 269 268 267 268 271 274 275 276 278 279 281 282 284 285
256 257 259 268 278 275 267 266 269 273 271 263 255 252 255 254 256 260 265 267 267 268 269 271 273 273 272 273 272 270 273 270 268 269 272 276 278 278 279 281 282 284 285 286
261 264 260 262 271 278 273 272 271 270 269 268 266 260 260 260 259 258 259 262 265 267 268 269 270 270 268 268 269 269 270 267 266 269 273 275 277 279 280 281 282 283 285 287
267 265 269 274 276 276 278 280 278 276 273 265 264 264 266 267 267 265 264 264 264 264 264 265 264 265 264 263 263 263 261 260 262 268 273 273 273 275 277 280 283 285 286 288
281 278 285 291 297 289 281 280 283 284 286 285 279 272 270 270 269 269 268 266 265 263 262 263 263 262 263 263 256 255 256 257 261 268 272 271 270 272 275 280 283 285 286 287
285 286 288 296 306 313 302 295 292 301 307 308 303 293 284 277 273 270 269 267 265 263 263 265 269 274 276 275 266 260 258 258 264 270 270 269 270 271 275 279 281 282 283 283
291 297 302 303 310 313 313 312 311 312 314 313 311 307 302 291 282 276 270 267 265 265 265 266 268 271 270 268 264 265 264 267 271 272 270 269 270 272 275 277 278 278 279 282
303 306 307 305 306 308 309 312 311 312 317 318 317 318 314 304 300 293 284 273 265 263 264 264 263 262 260 261 261 259 263 272 274 273 271 270 271 273 274 274 274 273 275 279
298 297 299 300 301 303 307 307 309 314 320 323 324 326 322 318 313 305 295 281 268 260 254 248 243 247 257 262 261 261 265 270 273 273 272 271 272 272 272 271 271 272 273 275
293 291 294 296 297 299 301 304 308 315 321 324 327 326 325 324 320 314 303 286 269 257 250 243 243 253 267 272 269 265 265 267 269 272 271 269 270 272 273 272 272 272 272 273
292 292 292 292 291 291 294 298 303 311 320 327 329 323 322 324 326 324 315 297 277 263 258 256 261 266 271 272 269 265 265 267 268 268 267 267 270 274 274 272 271 272 275 277
291 293 292 291 290 290 292 293 298 309 321 327 327 320 316 320 327 332 331 318 294 275 265 262 262 263 260 259 261 262 262 262 264 264 263 265 271 273 271 271 273 276 278 279
283 285 286 287 286 288 290 290 294 303 316 324 327 324 316 318 327 336 340 336 320 300 273 254 253 253 249 250 255 259 259 258 259 261 261 264 268 269 268 269 271 275 279 281
285 285 280 279 279 279 285 284 287 294 308 320 329 331 325 320 324 333 339 339 332 317 290 269 265 258 251 252 256 260 260 260 261 263 266 267 267 267 267 268 271 276 281 283
301 295 288 278 272 271 272 278 284 288 301 315 327 332 331 322 319 325 334 338 338 330 311 294 281 270 259 255 255 257 260 262 263 264 265 267 267 268 270 273 277 280 284 284
319 313 304 293 281 273 268 271 275 279 288 300 316 327 333 327 321 323 325 327 331 329 315 299 288 279 271 264 263 266 269 269 269 269 269 269 272 275 278 281 284 286 286 286
323 323 316 306 294 287 280 274 272 276 279 287 301 316 328 331 333 337 334 326 318 313 307 298 288 282 279 276 276 276 275 276 275 273 272 273 275 277 279 282 283 284 286 288
318 319 318 313 305 300 293 285 279 276 273 279 288 300 315 325 335 346 355 352 337 325 315 305 295 290 290 292 295 297 297 293 286 280 275 274 272 271 272 276 281 288 294 297
311 309 310 311 309 304 295 290 285 278 272 272 280 285 297 308 315 324 341 359 2 5 8 11 9 6 352 339 336 336 337 336 324 300 282 275 268 267 274 280 288 296 304 307
310 304 307 310 311 303 295 292 288 283 276 267 271 276 279 284 290 295 297 304 314 320 319 321 328 329 328 332 337 341 350 2 11 360 301 277 276 278 281 285 292 297 300 301
308 306 308 309 306 299 297 293 290 286 281 265 262 267 268 269 272 275 276 276 278 278 275 275 280 290 301 307 311 314 324 335 342 333 302 281 277 279 283 288 292 295 297 298
305 311 309 306 301 301 301 295 293 290 285 266 253 259 264 266 267 269 271 272 272 273 275 277 283 287 290 293 295 295 296 299 300 296 286 280 280 283 287 292 294 295 296 297
Height
5860 5864 5865 5866 5867 5867 5868 5870 5871 5873 5875 5875 5875 5876 5877 5878 5878 5878 5878 5879 5881 5884 5886 5888 5888 5888 5888 5888 5888 5888 5887 5886 5886 5886 5885 5884 5883 5882 5882 5881 5880 5880 5879 5877
5857 5859 5859 5860 5860 5862 5864 5866 5867 5869 5871 5871 5871 5870 5871 5872 5873 5873 5873 5873 5873 5874 5876 5876 5877 5878 5879 5878 5878 5877 5877 5877 5877 5877 5876 5876 5875 5875 5874 5873 5872 5871 5870 5869
5852 5854 5854 5855 5856 5858 5859 5861 5862 5863 5866 5866 5867 5868 5868 5868 5868 5868 5867 5867 5867 5867 5866 5866 5866 5866 5867 5867 5867 5866 5865 5865 5866 5866 5867 5867 5867 5867 5866 5864 5863 5862 5861 5860
5847 5849 5850 5851 5852 5853 5854 5855 5855 5855 5859 5861 5862 5863 5865 5862 5861 5860 5859 5859 5858 5858 5857 5855 5855 5855 5856 5856 5855 5854 5854 5855 5856 5856 5857 5858 5858 5857 5856 5855 5854 5853 5852 5850
5843 5844 5845 5846 5848 5848 5848 5848 5848 5848 5850 5853 5855 5854 5857 5857 5856 5855 5853 5851 5850 5849 5847 5845 5844 5844 5845 5845 5845 5845 5846 5846 5846 5846 5847 5848 5848 5847 5847 5846 5845 5844 5842 5841
5840 5840 5841 5842 5842 5841 5841 5841 5841 5842 5843 5845 5848 5848 5845 5847 5847 5847 5844 5840 5839 5838 5837 5834 5833 5832 5833 5834 5835 5835 5835 5836 5836 5837 5837 5838 5838 5838 5838 5837 5836 5835 5833 5831
5837 5838 5838 5838 5838 5837 5836 5836 5836 5835 5836 5836 5838 5837 5834 5833 5834 5834 5834 5831 5829 5828 5826 5824 5822 5821 5821 5821 5822 5823 5824 5824 5825 5826 5827 5827 5828 5828 5828 5828 5827 5825 5823 5822
5836 5836 5835 5835 5835 5834 5832 5831 5831 5830 5829 5829 5829 5826 5824 5822 5821 5821 5821 5819 5817 5816 5815 5812 5810 5810 5809 5809 5810 5811 5813 5814 5815 5817 5818 5818 5818 5818 5818 5817 5816 5814 5812 5810
5831 5832 5831 5830 5829 5829 5828 5826 5826 5825 5823 5821 5821 5820 5817 5814 5811 5808 5806 5804 5802 5801 5800 5797 5796 5797 5798 5798 5797 5799 5802 5804 5806 5807 5808 5808 5808 5807 5806 5805 5804 5803 5801 5799
5828 5828 5827 5825 5825 5825 5824 5823 5821 5819 5815 5813 5811 5809 5807 5803 5798 5794 5790 5788 5787 5786 5786 5786 5786 5787 5788 5788 5789 5789 5790 5792 5794 5795 5796 5796 5796 5795 5795 5794 5793 5792 5790 5789
5826 5826 5825 5822 5820 5819 5819 5818 5815 5812 5810 5805 5799 5799 5796 5790 5784 5778 5774 5771 5771 5771 5772 5774 5775 5776 5776 5776 5777 5779 5780 5782 5783 5782 5783 5784 5784 5785 5784 5784 5782 5781 5781 5781
5824 5823 5822 5820 5818 5815 5814 5812 5810 5807 5803 5797 5790 5788 5781 5774 5768 5762 5757 5754 5753 5756 5759 5761 5763 5764 5765 5766 5768 5770 5772 5773 5773 5773 5774 5774 5775 5775 5775 5775 5774 5773 5773 5773
5822 5820 5819 5817 5816 5813 5810 5807 5804 5800 5795 5788 5781 5779 5770 5763 5757 5750 5743 5740 5739 5742 5747 5749 5751 5753 5754 5756 5759 5761 5763 5764 5765 5765 5766 5766 5766 5766 5766 5766 5765 5765 5765 5765
5818 5816 5815 5813 5810 5807 5804 5801 5797 5793 5788 5781 5775 5769 5763 5756 5748 5740 5733 5729 5728 5730 5734 5738 5740 5743 5746 5748 5751 5753 5754 5755 5756 5756 5757 5757 5758 5758 5758 5758 5757 5757 5757 5757
5811 5810 5808 5806 5803 5801 5799 5796 5792 5788 5782 5774 5768 5762 5756 5750 5742 5733 5725 5720 5719 5720 5724 5727 5731 5734 5737 5740 5742 5745 5747 5748 5748 5749 5749 5750 5750 5750 5750 5749 5749 5748 5748 5749
5802 5801 5800 5799 5795 5793 5792 5790 5785 5781 5775 5769 5763 5757 5751 5745 5738 5729 5721 5716 5714 5714 5716 5719 5723 5726 5729 5731 5734 5736 5738 5740 5740 5741 5741 5742 5742 5742 5742 5741 5741 5740 5740 5740
5794 5792 5791 5790 5787 5785 5785 5783 5779 5776 5771 5766 5759 5754 5746 5741 5735 5728 5721 5716 5712 5711 5711 5714 5717 5719 5722 5724 5726 5728 5729 5731 5732 5733 5733 5732 5732 5733 5733 5733 5733 5733 5732 5732
5786 5783 5780 5779 5779 5778 5780 5775 5773 5770 5766 5761 5755 5749 5742 5737 5731 5726 5721 5716 5713 5711 5711 5712 5713 5715 5716 5718 5720 5721 5722 5723 5724 5724 5724 5724 5724 5724 5724 5725 5725 5725 5724 5723
5779 5774 5770 5768 5767 5767 5770 5767 5766 5763 5760 5755 5750 5745 5740 5734 5728 5724 5721 5716 5713 5711 5710 5710 5711 5711 5712 5714 5716 5717 5717 5717 5717 5717 5716 5716 5716 5716 5715 5716 5716 5716 5716 5715
5772 5767 5763 5759 5756 5756 5761 5759 5757 5756 5754 5750 5746 5742 5737 5732 5727 5723 5718 5715 5712 5710 5710 5709 5709 5709 5710 5711 5712 5713 5712 5711 5710 5709 5708 5707 5707 5707 5707 5708 5708 5709 5709 5708
5765 5761 5756 5751 5747 5746 5749 5748 5748 5748 5747 5744 5741 5738 5734 5730 5725 5721 5716 5713 5711 5709 5708 5708 5707 5707 5708 5708 5708 5707 5706 5704 5702 5701 5700 5700 5701 5701 5701 5702 5703 5703 5702 5702
5759 5755 5750 5746 5741 5741 5740 5737 5737 5737 5737 5736 5735 5733 5730 5727 5723 5719 5715 5712 5710 5708 5707 5706 5705 5705 5704 5704 5703 5702 5700 5697 5695 5694 5694 5694 5695 5696 5697 5697 5698 5698 5697 5696
5755 5751 5745 5742 5740 5735 5731 5728 5727 5727 5727 5727 5727 5726 5726 5723 5721 5718 5715 5712 5710 5708 5706 5705 5704 5704 5703 5701 5700 5698 5696 5693 5691 5690 5690 5691 5692 5693 5693 5693 5694 5694 5693 5692
5750 5744 5739 5736 5733 5729 5724 5721 5718 5717 5717 5719 5719 5719 5720 5719 5717 5716 5714 5712 5709 5707 5706 5705 5704 5703 5701 5700 5698 5696 5694 5692 5689 5688 5688 5689 5689 5690 5690 5690 5690 5690 5689 5688
5743 5738 5734 5730 5726 5722 5719 5714 5711 5709 5708 5709 5710 5711 5712 5713 5713 5712 5710 5709 5707 5706 5704 5703 5702 5700 5699 5697 5696 5694 5692 5690 5688 5687 5687 5686 5687 5687 5687 5687 5686 5686 5684 5682
5736 5732 5728 5724 5719 5714 5712 5708 5704 5701 5700 5700 5701 5702 5703 5705 5706 5705 5705 5704 5703 5702 5700 5698 5697 5696 5695 5694 5693 5691 5689 5688 5686 5685 5685 5684 5684 5683 5683 5682 5682 5681 5679 5677